EW6527 Weather Reports


time (UTC)temp
C
wind
direction
speed
KPH
gust
KPH
rain 1hr
cm
rain 24hr
cm
rain mn
cm
humidity
%
barometer
mb
20260505040801 12 0 0.0 0.0 0.00 0.00 0.00 63 1022.2
20260505035806 12 0 0.0 0.0 0.00 0.00 0.00 63 1022.2
20260505034759 12 0 0.0 0.0 0.00 0.00 0.00 62 1022.3
20260505033759 12 0 0.0 0.0 0.00 0.00 0.00 62 1022.3
20260505032800 12 0 0.0 0.0 0.00 0.00 0.00 62 1022.3
20260505031800 12 0 0.0 0.0 0.00 0.00 0.00 61 1022.3
20260505030800 13 0 0.0 0.0 0.00 0.00 0.00 60 1022.4
20260505025759 13 0 0.0 0.0 0.00 0.00 0.00 60 1022.5
20260505025244 13 0 0.0 0.0 0.00 0.00 0.00 60 1022.5
20260505023759 13 0 0.0 0.0 0.00 0.00 0.00 60 1022.5
20260505023407 13 0 0.0 0.0 0.00 0.00 0.00 60 1022.7
20260505023219 13 0 0.0 0.0 0.00 0.00 0.00 60 1022.8
20260505020757 13 0 0.0 0.0 0.00 0.00 0.00 60 1022.8
20260505015758 13 0 0.0 0.0 0.00 0.00 0.00 59 1022.8
20260505014757 14 0 0.0 0.0 0.00 0.00 0.00 59 1022.9
20260505013754 14 0 0.0 0.0 0.00 0.00 0.00 58 1022.9
20260505012755 14 0 0.0 0.0 0.00 0.00 0.00 58 1022.9
20260505011753 15 0 0.0 0.0 0.00 0.00 0.00 58 1022.9
20260505010754 15 0 0.0 0.0 0.00 0.00 0.00 58 1022.9
20260505005754 15 0 0.0 0.0 0.00 0.00 0.00 58 1023.0
20260505004754 15 0 0.0 0.0 0.00 0.00 0.00 57 1023.1
20260505003754 15 0 0.0 0.0 0.00 0.00 0.00 57 1023.1
20260505002755 15 0 0.0 0.0 0.00 0.00 0.00 56 1023.2
20260505001754 15 0 0.0 0.0 0.00 0.00 0.00 55 1023.2
20260505000753 16 0 0.0 0.0 0.00 0.00 0.00 55 1023.3
20260504235753 16 0 0.0 0.0 0.00 0.00 0.00 55 1023.4
20260504234753 16 0 0.0 0.0 0.00 0.00 0.00 55 1023.4
20260504233753 16 0 0.0 0.0 0.00 0.00 0.00 54 1023.5
20260504232754 16 0 0.0 0.0 0.00 0.00 0.00 53 1023.5
20260504232228 17 0 0.0 0.0 0.00 0.00 0.00 53 1023.6
20260504231716 17 0 0.0 0.0 0.00 0.00 0.00 51 1023.6
20260504230236 17 0 0.0 0.0 0.00 0.00 0.00 51 1023.7
20260504225226 18 0 0.0 0.0 0.00 0.00 0.00 51 1023.8
20260504223751 18 0 0.0 0.0 0.00 0.00 0.00 50 1023.8
20260504223226 18 0 0.0 0.0 0.00 0.00 0.00 48 1023.9
20260504221750 19 0 0.0 0.0 0.00 0.00 0.00 48 1023.9
20260504220751 19 0 0.0 0.0 0.00 0.00 0.00 47 1023.9
20260504215747 20 0 0.0 0.0 0.00 0.00 0.00 45 1023.9
20260504214747 20 0 0.0 0.0 0.00 0.00 0.00 43 1023.8
20260504213746 20 0 0.0 0.0 0.00 0.00 0.00 42 1023.8
20260504212746 20 0 0.0 0.0 0.00 0.00 0.00 40 1023.8
20260504211747 20 0 0.0 0.0 0.00 0.00 0.00 42 1023.8
20260504210746 21 0 0.0 0.0 0.00 0.00 0.00 41 1023.9
20260504205747 21 0 0.0 0.0 0.00 0.00 0.00 38 1023.9
20260504204745 21 0 0.0 0.0 0.00 0.00 0.00 37 1023.8
20260504203744 21 0 0.0 0.0 0.00 0.00 0.00 38 1023.8
20260504202745 21 0 0.0 0.0 0.00 0.00 0.00 36 1023.8
20260504201745 22 0 0.0 0.0 0.00 0.00 0.00 37 1023.7
20260504200744 22 0 0.0 0.0 0.00 0.00 0.00 36 1023.7
20260504195745 22 0 0.0 0.0 0.00 0.00 0.00 32 1023.5
20260504194744 22 0 0.0 0.0 0.00 0.00 0.00 33 1023.5
20260504193744 23 0 0.0 0.0 0.00 0.00 0.00 33 1023.5
20260504192744 23 0 0.0 0.0 0.00 0.00 0.00 36 1023.5
20260504192221 23 0 0.0 0.0 0.00 0.00 0.00 34 1023.4
20260504190744 23 0 0.0 0.0 0.00 0.00 0.00 33 1023.3
20260504185744 23 0 0.0 0.0 0.00 0.00 0.00 27 1023.2
20260504184743 24 0 0.0 0.0 0.00 0.00 0.00 33 1023.2
20260504183743 24 0 0.0 0.0 0.00 0.00 0.00 30 1023.1
20260504183236 25 0 0.0 0.0 0.00 0.00 0.00 32 1023.1
20260504181744 25 0 0.0 0.0 0.00 0.00 0.00 32 1022.9
20260504180744 25 0 0.0 0.0 0.00 0.00 0.00 29 1022.8
20260504175743 26 0 0.0 0.0 0.00 0.00 0.00 28 1022.7
20260504175207 26 0 0.0 0.0 0.00 0.00 0.00 25 1022.7
20260504174938 26 0 0.0 0.0 0.00 0.00 0.00 27 1022.7
20260504172744 26 0 0.0 0.0 0.00 0.00 0.00 24 1022.7
20260504171743 26 0 0.0 0.0 0.00 0.00 0.00 23 1022.6
20260504170745 26 0 0.0 0.0 0.00 0.00 0.00 23 1022.6
20260504160222 27 0 0.0 0.0 0.00 0.00 0.00 20 1022.6
20260504150744 28 0 0.0 0.0 0.00 0.00 0.00 20 1022.8
20260504140742 31 0 0.0 0.0 0.00 0.00 0.00 18 1023.2
20260504130737 31 0 0.0 0.0 0.00 0.00 0.00 16 1023.7
20260504120132 29 0 0.0 0.0 0.00 0.00 0.00 18 1024.4
20260504110212 26 0 0.0 0.0 0.00 0.00 0.00 22 1025.2
20260504080729 19 0 0.0 0.0 0.00 0.00 0.00 32 1026.6
20260504060204 14 0 0.0 0.0 0.00 0.00 0.00 55 1026.6
20260504050158 12 0 0.0 0.0 0.00 0.00 0.00 65 1026.4